Regional Weather Roundup
Issued by NWS

Home | Current Version | Previous Version | Graphics & Text | Print | Product List | Glossary On
Versions: 1 2 3 4 5 6 7 8 9 10 11 12 13 14 15 16 17 18 19 20 21 22 23 24 25 26 27 28 29 30 31 32 33 34 35 36 37 38 39 40 41 42 43 44 45 46 47 48 49 50
000
ASUS43 KMPX 260110
RWRMN
WEATHER ROUNDUP FOR MINNESOTA
NATIONAL WEATHER SERVICE TWIN CITIES/CHANHASSEN MN
800 PM CDT WED APR 25 2018


NOTE: "FAIR" INDICATES FEW OR NO CLOUDS BELOW 12,000 FEET WITH NO
SIGNIFICANT WEATHER AND/OR OBSTRUCTIONS TO VISIBILITY. N/A MEANS
CURRENT SKY AND/OR WEATHER CONDITIONS ARE NOT AVAILABLE.

MNZ060>063-068>070-260200-
   Twin Cities Metro

CITY           SKY/WX    TMP DP  RH WIND       PRES   REMARKS
TWIN CITIES    MOCLDY    56  28  34 W8        30.01F
ST PAUL        FAIR      54  24  31 SW7       30.01F
CRYSTAL        FAIR      54  25  32 SW9       30.00F
BLAINE         PTCLDY    55  25  30 W5        30.00F
LAKEVILLE      FAIR      52  30  43 W3        30.02S
EDEN PRAIRIE   FAIR      53  29  39 W5        30.01F
SOUTH ST PAUL  FAIR      55  21  26 W3        30.00F
LAKE ELMO      FAIR      54  28  37 SW6       30.01S
$$
MNZ001>005-007-008-013>017-022>024-027-028-260200-
   Northwest Minnesota

CITY           SKY/WX    TMP DP  RH WIND       PRES   REMARKS
BEMIDJI        FAIR      54  29  39 S9        29.88F
HALLOCK        FAIR      61  28  29 S13       29.76F
ROSEAU         FAIR      57  37  47 S13G18    29.80F
WARROAD        FAIR      55  39  54 SW9       29.81S
THIEF RVR FALL FAIR      57  35  43 SW10      29.84S
CROOKSTON      FAIR      57  37  47 SW12      29.83F
FOSSTON        FAIR      54  32  43 S16       29.86F
DETROIT LAKES  FAIR      54  32  43 S7        29.91F
MOORHEAD       FAIR      57  36  44 S13       29.88F
PARK RAPIDS    FAIR      53  29  39 S12       29.91F
MAHNOMEN       FAIR      53  36  50 S12       29.87F
$$
MNZ006-009>011-018-025>026-260200-
   North Central Minnesota

CITY           SKY/WX    TMP DP  RH WIND       PRES   REMARKS
BAUDETTE       FAIR      57  33  40 SW10      29.82F
FLAG ISLAND    FAIR      48  32  53 S9        29.78F
INTL FALLS     FAIR      56  29  35 SW5       29.85F
WASKISH        MOCLDY    55  30  38 SW8       29.86F
BIG FORK       FAIR      52  27  37 S9G16     29.89F
LONGVILLE      FAIR      54  27  35 S5        29.92F
GRAND RAPIDS   FAIR      52  27  38 S9        29.93F
CRANE LAKE     FAIR      54  21  28 S3        29.90F
ORR            FAIR      54  19  26 S3        29.86F
COOK           FAIR      54  25  32 S3        29.90F
WALKER         FAIR      52  26  35 SW8       29.91F
$$
MNZ012-019>021-037-260200-
   Northeast Minnesota

CITY           SKY/WX    TMP DP  RH WIND       PRES   REMARKS
DULUTH         FAIR      52  23  32 SW7       29.94F
ELY            FAIR      52  23  32 SW6       29.90F
HIBBING        FAIR      51  24  34 S3        29.91F
EVELETH        FAIR      51  27  38 S6        29.93F
DULUTH HARBOR  FAIR      37  30  75 NE3       29.95F
TWO HARBORS    FAIR      48  25  40 CALM      29.93F
SILVER BAY     FAIR      43  23  45 CALM      29.92F
GRAND MARAIS     N/A     34  28  79 CALM      29.97F
G MARAIS ARPRT FAIR      37  16  41 S7        29.94F
$$
MNZ029>031-032-039>041-046>048-054>057-064-260200-
   West Central Minnesota

CITY           SKY/WX    TMP DP  RH WIND       PRES   REMARKS
FERGUS FALLS   FAIR      54  36  50 S8        29.90S
WHEATON        CLOUDY    55  36  47 S8        29.95F
MORRIS         CLOUDY    54  39  58 S8        29.94F
ALEXANDRIA     FAIR      54  32  43 S8        29.96F
ELBOW LAKE     FAIR      51  38  61 S9        29.93F
WADENA         FAIR      52  30  43 S7        29.93F
GLENWOOD       FAIR      48  34  57 S8        29.97F
APPLETON       CLOUDY    55  32  41 S7        29.96F
BENSON         CLOUDY    52  36  54 SW7       29.99F
ORTONVILLE     CLOUDY    55  36  47 S8        29.95F
WILLMAR        FAIR      52  36  54 CALM      30.02S
$$
MNZ033>034-036-042>043-049>051-058-059-260200-
   Central Minnesota

CITY           SKY/WX    TMP DP  RH WIND       PRES   REMARKS
ST CLOUD       FAIR      53  29  39 SW7       29.98F
SAUK CENTRE    FAIR      49  32  51 S7        29.97F
PAYNESVILLE    FAIR      52  33  48 SW5       29.99F
AITKIN         FAIR      48  25  40 S6        29.93F
PINE RIVER     FAIR      52  28  40 SW6       29.96F
BRAINERD       FAIR      53  25  33 S8        29.95F
STAPLES        FAIR      50  27  40 S6        29.94F
LONG PRAIRIE   FAIR      48  30  49 SE7       29.96F
LITTLE FALLS   FAIR      52  21  30 SW5       29.98S
LITCHFIELD     FAIR      52  36  54 CALM      30.00F
BUFFALO        FAIR      51  27  39 S3        30.01F
MAPLE LAKE     FAIR      52  33  49 CALM      30.00F
HUTCHINSON     FAIR      51  38  61 CALM      30.02F
$$
MNZ037-044-045-052-053-260200-
   East Central Minnesota

CITY           SKY/WX    TMP DP  RH WIND       PRES   REMARKS
PRINCETON      FAIR      54  25  32 S5        29.98F
MORA           FAIR      50  25  37 SW3       29.99F
CAMBRIDGE      FAIR      55  34  44 S6        29.99F
RUSH CITY      FAIR      53  26  34 CALM      29.99F
MOOSE LAKE     FAIR      50  19  29 SW3       29.94F
HINCKLEY       FAIR      52  30  43 S6        29.98F
CLOQUET        FAIR      52  10  19 SW3       29.95F
MCGREGOR       FAIR      50  27  40 S5        29.95F
$$
MNZ071>073-080-081-089-090-097-098-260200-
   Southwest Minnesota

CITY           SKY/WX    TMP DP  RH WIND       PRES   REMARKS
MONTEVIDEO     CLOUDY    54  32  43 SW3       29.99S
GRANITE FALLS  PTCLDY    53  43  70 S6        30.01S
CANBY          CLOUDY    56  32  41 SW3       29.99F
MARSHALL       PTCLDY    53  36  52 S6        30.00F
REDWOOD FALLS  CLEAR     52  37  56 S7        30.00F
OLIVIA         PTCLDY    52  36  54 S3        29.99F
PIPESTONE      CLEAR    N/A N/A N/A SW3       30.00F
WINDOM         CLEAR     54  28  37 CALM      30.02F
WORTHINGTON    CLEAR     54  35  48 W3        30.02F
JACKSON        CLEAR     52  32  46 CALM      30.03F
TRACY          CLOUDY    55  38  52 SW3       30.00F
SLAYTON        CLEAR     53  40  62 SW6       30.01F
$$
MNZ065>067-074>077-082>085-091>093-260200-
   South Central Minnesota

CITY           SKY/WX    TMP DP  RH WIND       PRES   REMARKS
MANKATO        FAIR      53  34  48 NW3       30.03F
NEW ULM        CLEAR     52  37  58 CALM      30.02F
ST JAMES       CLEAR     54  37  54 CALM      30.04F
FAIRMONT       CLEAR     54  34  46 W3        30.03F
GLENCOE        FAIR      53  37  56 CALM      30.00F
OWATONNA       FAIR      52  34  50 W5        30.02F
WASECA         FAIR      52  37  58 W3        30.04S
ALBERT LEA     FAIR      52  30  43 W3        30.03S
$$
MNZ078>079-086>088-094>096-260200-
   Southeast Minnesota

CITY           SKY/WX    TMP DP  RH WIND       PRES   REMARKS
ROCHESTER      FAIR      51  38  60 W7        30.02F
RED WING       FAIR      55  18  22 CALM      30.00F
STANTON        FAIR      54  33  44 W6        30.00S
DODGE CENTER   FAIR      54  30  40 W3        30.02S
WINONA         FAIR      54  28  37 CALM      29.99S
AUSTIN         FAIR      54  28  37 CALM      30.02S
PRESTON        FAIR      53  26  34 CALM      30.02F
$$
ABBREVIATIONS USED IN REMARKS
   TC - TEMPERATURES IN CELSIUS
  WCI - WIND CHILL INDEX
   HX - HEAT INDEX
  VSB - VISIBILITY
$$




USA.gov is the U.S. government's official web portal to all federal, state and local government web resources and services.